TimeEDT,TemperatureF,Dew PointF,Humidity,Sea Level PressureIn,VisibilityMPH,Wind Direction,Wind SpeedMPH,Gust SpeedMPH,PrecipitationIn,Events,Conditions,WindDirDegrees,DateUTC
12:15 AM,35.8,35.1,97,30.14,10.0,Calm,Calm,-,N/A,,Scattered Clouds,0,2012-10-08 04:15:00
12:35 AM,36.9,36.5,99,30.13,10.0,Calm,Calm,-,N/A,,Mostly Cloudy,0,2012-10-08 04:35:00
12:55 AM,37.4,36.5,97,30.13,10.0,Calm,Calm,-,N/A,,Mostly Cloudy,0,2012-10-08 04:55:00
1:15 AM,36.5,35.6,97,30.13,10.0,Calm,Calm,-,N/A,,Scattered Clouds,0,2012-10-08 05:15:00
1:35 AM,36.1,34.7,94,30.13,10.0,Calm,Calm,-,N/A,,Clear,0,2012-10-08 05:35:00
1:55 AM,34.9,32.7,92,30.14,10.0,Calm,Calm,-,N/A,,Clear,0,2012-10-08 05:55:00
2:15 AM,34.2,32.9,95,30.14,10.0,Calm,Calm,-,N/A,,Clear,0,2012-10-08 06:15:00
2:35 AM,34.2,32.9,95,30.14,10.0,Calm,Calm,-,N/A,,Clear,0,2012-10-08 06:35:00
2:55 AM,33.4,32.2,95,30.14,10.0,Calm,Calm,-,N/A,,Clear,0,2012-10-08 06:55:00
3:15 AM,34.3,33.4,97,30.14,10.0,Calm,Calm,-,N/A,,Clear,0,2012-10-08 07:15:00
3:35 AM,31.1,30.2,96,30.14,10.0,Calm,Calm,-,N/A,,Clear,0,2012-10-08 07:35:00
3:55 AM,29.8,29.7,99,30.14,10.0,South,4.6,-,N/A,,Clear,190,2012-10-08 07:55:00
4:15 AM,32.5,32.4,99,30.14,10.0,SSW,3.5,-,N/A,,Clear,210,2012-10-08 08:15:00
4:35 AM,33.3,32.2,96,30.14,10.0,South,3.5,-,N/A,,Clear,190,2012-10-08 08:35:00
4:55 AM,33.8,32.0,93,30.14,10.0,Calm,Calm,-,N/A,,Clear,0,2012-10-08 08:55:00
5:16 AM,34.0,32.0,92,30.14,10.0,South,3.5,-,N/A,,Clear,190,2012-10-08 09:16:00
5:35 AM,33.8,31.5,91,30.14,10.0,SSW,3.5,-,N/A,,Clear,200,2012-10-08 09:35:00
5:55 AM,34.2,31.6,90,30.14,10.0,SSW,3.5,-,N/A,,Clear,200,2012-10-08 09:55:00
6:15 AM,34.9,32.0,89,30.14,10.0,South,3.5,-,N/A,,Clear,190,2012-10-08 10:15:00
6:35 AM,35.1,32.0,89,30.14,10.0,South,3.5,-,N/A,,Clear,180,2012-10-08 10:35:00
6:55 AM,35.6,32.0,87,30.15,10.0,South,4.6,-,N/A,,Scattered Clouds,180,2012-10-08 10:55:00
7:15 AM,36.1,32.0,85,30.16,10.0,South,3.5,-,N/A,,Mostly Cloudy,180,2012-10-08 11:15:00
7:35 AM,37.0,32.0,82,30.16,10.0,South,4.6,-,N/A,,Overcast,180,2012-10-08 11:35:00
7:55 AM,37.8,32.0,80,30.16,10.0,South,6.9,-,N/A,,Overcast,190,2012-10-08 11:55:00
8:15 AM,38.3,32.4,79,30.17,10.0,South,9.2,-,N/A,,Overcast,190,2012-10-08 12:15:00
8:35 AM,37.9,32.5,81,30.17,10.0,SSW,6.9,-,N/A,,Mostly Cloudy,200,2012-10-08 12:35:00
8:55 AM,38.7,32.4,78,30.17,10.0,SSW,5.8,-,N/A,,Scattered Clouds,210,2012-10-08 12:55:00
9:15 AM,40.6,32.4,72,30.17,10.0,SSW,6.9,-,N/A,,Clear,210,2012-10-08 13:15:00
9:35 AM,42.4,32.2,67,30.18,10.0,SSW,8.1,-,N/A,,Clear,200,2012-10-08 13:35:00
9:55 AM,44.1,31.3,61,30.18,10.0,SW,9.2,-,N/A,,Clear,230,2012-10-08 13:55:00
10:15 AM,45.7,30.6,56,30.17,10.0,SW,9.2,-,N/A,,Clear,220,2012-10-08 14:15:00
10:36 AM,47.3,29.7,50,30.17,10.0,SSW,9.2,-,N/A,,Clear,210,2012-10-08 14:36:00
10:55 AM,48.9,29.8,48,30.17,10.0,SSW,9.2,-,N/A,,Clear,200,2012-10-08 14:55:00
11:15 AM,50.4,29.1,44,30.17,10.0,SSW,9.2,-,N/A,,Clear,210,2012-10-08 15:15:00
11:35 AM,51.4,28.4,41,30.16,10.0,South,10.4,-,N/A,,Clear,190,2012-10-08 15:35:00
11:55 AM,52.3,27.3,38,30.16,10.0,SSW,10.4,17.3,N/A,,Clear,200,2012-10-08 15:55:00
12:15 PM,53.4,27.3,37,30.16,10.0,South,10.4,-,N/A,,Clear,190,2012-10-08 16:15:00
12:35 PM,53.6,26.4,35,30.16,10.0,South,11.5,19.6,N/A,,Clear,190,2012-10-08 16:35:00
12:55 PM,54.9,27.3,35,30.16,10.0,South,11.5,-,N/A,,Scattered Clouds,180,2012-10-08 16:55:00
1:15 PM,54.9,26.6,34,30.15,10.0,South,9.2,17.3,N/A,,Scattered Clouds,190,2012-10-08 17:15:00
1:35 PM,54.9,26.2,33,30.15,10.0,SW,9.2,16.1,N/A,,Scattered Clouds,220,2012-10-08 17:35:00
1:55 PM,55.6,26.8,33,30.14,10.0,SW,9.2,-,N/A,,Clear,220,2012-10-08 17:55:00
2:15 PM,55.6,26.8,33,30.13,10.0,South,10.4,17.3,N/A,,Scattered Clouds,180,2012-10-08 18:15:00
2:35 PM,54.9,27.0,34,30.12,10.0,SSW,10.4,-,N/A,,Scattered Clouds,210,2012-10-08 18:35:00
2:55 PM,54.7,26.8,34,30.12,10.0,South,12.7,17.3,N/A,,Scattered Clouds,180,2012-10-08 18:55:00
3:16 PM,55.6,26.8,33,30.11,10.0,SSW,8.1,18.4,N/A,,Clear,210,2012-10-08 19:16:00
3:35 PM,55.6,26.8,33,30.10,10.0,SW,8.1,-,N/A,,Clear,220,2012-10-08 19:35:00
3:55 PM,55.4,26.1,32,30.09,10.0,SSW,10.4,16.1,N/A,,Clear,210,2012-10-08 19:55:00
4:15 PM,56.1,26.8,32,30.09,10.0,SW,11.5,-,N/A,,Clear,230,2012-10-08 20:15:00
4:35 PM,55.8,25.9,32,30.09,10.0,SW,10.4,-,N/A,,Clear,220,2012-10-08 20:35:00
4:55 PM,55.8,26.2,32,30.08,10.0,SSW,11.5,16.1,N/A,,Clear,210,2012-10-08 20:55:00
5:15 PM,55.6,25.9,32,30.08,10.0,SW,8.1,-,N/A,,Clear,220,2012-10-08 21:15:00
5:35 PM,55.4,25.7,32,30.08,10.0,South,11.5,-,N/A,,Clear,190,2012-10-08 21:35:00
5:55 PM,54.7,25.2,32,30.07,10.0,SSW,9.2,-,N/A,,Clear,200,2012-10-08 21:55:00
6:15 PM,54.3,25.5,33,30.07,10.0,South,6.9,-,N/A,,Clear,180,2012-10-08 22:15:00
6:35 PM,53.6,25.7,34,30.07,10.0,South,6.9,-,N/A,,Clear,180,2012-10-08 22:35:00
6:55 PM,52.2,25.3,35,30.07,10.0,South,5.8,-,N/A,,Clear,180,2012-10-08 22:55:00
7:15 PM,50.5,26.4,39,30.07,10.0,South,4.6,-,N/A,,Clear,180,2012-10-08 23:15:00
7:35 PM,48.6,27.1,43,30.07,10.0,Calm,Calm,-,N/A,,Clear,0,2012-10-08 23:35:00
7:56 PM,47.5,27.5,46,30.08,10.0,Calm,Calm,-,N/A,,Clear,0,2012-10-08 23:56:00
8:15 PM,43.7,29.7,58,30.08,10.0,Calm,Calm,-,N/A,,Clear,0,2012-10-09 00:15:00
8:35 PM,42.3,30.6,63,30.09,10.0,Calm,Calm,-,N/A,,Clear,0,2012-10-09 00:35:00
8:55 PM,41.2,30.6,66,30.09,10.0,SSE,3.5,-,N/A,,Clear,150,2012-10-09 00:55:00
9:15 PM,43.9,28.6,55,30.09,10.0,SSE,4.6,-,N/A,,Clear,150,2012-10-09 01:15:00
9:35 PM,43.9,28.4,55,30.09,10.0,SSE,3.5,-,N/A,,Clear,160,2012-10-09 01:35:00
9:55 PM,43.2,28.4,56,30.09,10.0,SSE,4.6,-,N/A,,Clear,160,2012-10-09 01:55:00
10:15 PM,43.2,28.4,56,30.09,10.0,SSE,4.6,-,N/A,,Clear,150,2012-10-09 02:15:00
10:35 PM,43.2,29.3,58,30.09,10.0,SSE,4.6,-,N/A,,Clear,160,2012-10-09 02:35:00
10:55 PM,43.2,29.3,58,30.09,10.0,South,4.6,-,N/A,,Clear,170,2012-10-09 02:55:00
11:15 PM,43.0,29.7,59,30.09,10.0,South,5.8,-,N/A,,Clear,170,2012-10-09 03:15:00
11:55 PM,42.8,29.3,59,30.09,10.0,South,4.6,-,N/A,,Clear,170,2012-10-09 03:55:00